Simultaneous Nadir Overpasses (SNOs) Predictions

Prediction of SNOs between AQUA and NOAA-19 Satellite Orbit:

Table of predicted SNOs for the next 14.0 days since TLE Epoch: 9/7/2013
Index Date (AQUA) Time (AQUA) Lat,Lon (AQUA) SZA (AQUA ) Date (NOAA-19) Time (NOAA-19) Lat,Lon (NOAA-19) SZA (NOAA-19 ) Distance(km) Time Diff (sec)
1 09/08/2013 06:41:52 -61.65, -91.99 123.70 09/08/2013 06:41:43 -61.65, -92.01 123.70 1.53 9
2 09/10/2013 11:26:16 -61.89,-163.25 122.63 09/10/2013 11:26:02 -61.89,-163.25 122.63 0.07 14
3 09/12/2013 16:10:37 -61.97, 125.61 121.70 09/12/2013 16:10:18 -61.96, 125.64 121.71 2.16 19
4 09/12/2013 16:56:21 48.81, -59.63 46.62 09/12/2013 16:57:34 48.83, -59.42 46.77 15.69 73
5 09/14/2013 20:55:11 -62.82, 53.87 120.06 09/14/2013 20:54:48 -62.82, 53.88 120.07 0.50 23
6 09/14/2013 21:42:40 55.88,-134.00 53.65 09/14/2013 21:43:53 55.89,-134.02 53.70 1.25 73
7 09/17/2013 01:39:42 -63.51, -17.77 118.56 09/17/2013 01:39:15 -63.51, -17.77 118.56 0.39 27
8 09/17/2013 02:27:07 56.36, 154.66 54.94 09/17/2013 02:28:16 56.36, 154.65 54.99 0.35 69
9 09/19/2013 06:24:09 -63.99, -89.25 117.25 09/19/2013 06:23:38 -63.99, -89.26 117.25 0.49 31




NCC Satellite Simultaneous Nadir Overpasses (SNOs) Prediction Service
